User: anonymous   Login
Location: Godiavel Galaoual
(15.2485°N, 12.6604°W)
Time: 14:27:19
(UTC+00:00)
Language:

Vanguard 2 - Orbit

View from above orbital plane
View from above orbital plane
View from above satellite
View from above satellite

Ground track
Ground track

The orbit data is extracted from the following two-line orbital elements,

1 00011U 59001A   21172.49043620  .00000045  00000-0  11515-4 0  9994
2 00011  32.8685 109.7309 1467983 175.0044 186.7130 11.85802046318793
Epoch (UTC): 21 June 2021 11:46:13
Eccentricity: 0.1467983
inclination: 32.8685°
perigee height: 552 km
apogee height: 2937 km
right ascension of ascending node: 109.7309°
argument of perigee: 175.0044°
revolutions per day: 11.85802046
mean anomaly at epoch: 186.7130°
orbit number at epoch: 31879

The dashed part of the orbit path shows where the satellite is in the earth's shadow,  

DLR